Worland, WY

7:50 PM MDT on July 25, 2017 (GMT -0600)
Worland Municipal

Weather History for KWRL - September, 2013

Change the Weather History Date:

Monday, September 16, 2013

  Actual Average Record
Temperature  
Mean Temperature 69 °F 58 °F  
Max Temperature 84 °F 74 °F 98 °F (2000)
Min Temperature 53 °F 43 °F 28 °F (1965)
Degree Days  
Heating Degree Days 0 7  
Month to date heating degree days 17 74  
Since 1 July heating degree days 17 110  
Cooling Degree Days 4 1  
Month to date cooling degree days 84 26  
Year to date cooling degree days 845 532  
Growing Degree Days 18 (Base 50)    
Moisture  
Dew Point 49 °F    
Average Humidity 56    
Maximum Humidity 83    
Minimum Humidity 28    
Precipitation  
Precipitation 0.00 in 0.02 in 0.47 in (1980)
Month to date precipitation 0.37 0.39  
Year to date precipitation 3.58 5.84  
Sea Level Pressure  
Sea Level Pressure 29.89 in    
Wind  
Wind Speed 6 mph (SE)    
Max Wind Speed 14 mph    
Max Gust Speed 16 mph    
Visibility 10 miles    
Events      
T = Trace of Precipitation, MM = Missing Value Source: NWS Daily Summary

Daily Weather History Graph

Daily Weather History Graph

Search for Another Location

Airport or City:

Trip Planner

Search our weather history database for the weather conditions in past years. The results will help you decide how hot, cold, wet, or windy it might be!

Date:

Astronomy

Sep. 16, 2013 Rise Set
Actual Time 6:52 AM MDT 7:19 PM MDT
Civil Twilight 6:23 AM MDT 7:48 PM MDT
Nautical Twilight 5:49 AM MDT 8:22 PM MDT
Astronomical Twilight 5:14 AM MDT 8:57 PM MDT
Moon 5:34 PM MDT (9/16) 3:37 AM MDT (9/16)
Length of Visible Light 13h 25m
Length of Day
12h 27m
Waxing Gibbous, 90% of the Moon is Illuminated
Sep 16
Waxing Gibbous
Sep 19
Full
Sep 26
Last Quarter
Oct 4
New
Oct 11
First Quarter

Hourly Weather History & Observations

Time (MDT) Temp. Dew Point Humidity Pressure Visibility Wind Dir Wind Speed Gust Speed Precip Events Conditions
12:53 AM 57.0 °F 50.0 °F 77% 30.01 in 10.0 mi East 4.6 mph - N/A   Clear
1:53 AM 60.1 °F 50.0 °F 69% 29.99 in 10.0 mi SSE 10.4 mph - N/A   Clear
2:53 AM 57.0 °F 50.0 °F 77% 29.99 in 10.0 mi South 8.1 mph - N/A   Clear
3:53 AM 57.9 °F 50.0 °F 75% 29.97 in 10.0 mi SSE 8.1 mph - N/A   Clear
4:53 AM 57.0 °F 50.0 °F 77% 29.96 in 10.0 mi SE 10.4 mph - N/A   Clear
5:53 AM 57.0 °F 50.0 °F 77% 29.95 in 10.0 mi SE 10.4 mph - N/A   Clear
6:53 AM 53.1 °F 48.9 °F 86% 29.97 in 10.0 mi Calm Calm - N/A   Clear
7:53 AM 55.9 °F 50.0 °F 80% 29.99 in 10.0 mi Calm Calm - N/A   Clear
8:53 AM 63.0 °F 51.1 °F 65% 29.96 in 10.0 mi SE 5.8 mph - N/A   Clear
9:53 AM 68.0 °F 52.0 °F 56% 29.94 in 10.0 mi Variable 4.6 mph - N/A   Clear
10:53 AM 70.0 °F 52.0 °F 53% 29.94 in 10.0 mi SW 4.6 mph - N/A   Clear
11:53 AM 73.0 °F 52.0 °F 48% 29.92 in 10.0 mi Variable 3.5 mph - N/A   Clear
12:53 PM 75.9 °F 48.9 °F 38% 29.89 in 10.0 mi Variable 4.6 mph - N/A   Clear
1:53 PM 78.1 °F 48.9 °F 36% 29.86 in 10.0 mi Calm Calm - N/A   Clear
2:53 PM 81.0 °F 45.0 °F 28% 29.83 in 10.0 mi WSW 3.5 mph - N/A   Clear
3:53 PM 82.9 °F 46.9 °F 28% 29.80 in 10.0 mi NNE 4.6 mph - N/A   Clear
4:53 PM 82.9 °F 46.9 °F 28% 29.78 in 10.0 mi NE 6.9 mph - N/A   Clear
5:53 PM 81.0 °F 46.9 °F 30% 29.77 in 10.0 mi NE 4.6 mph - N/A   Clear
6:53 PM 75.9 °F 48.9 °F 38% 29.78 in 10.0 mi East 5.8 mph - N/A   Clear
7:53 PM 71.1 °F 45.0 °F 39% 29.79 in 10.0 mi ESE 8.1 mph - N/A   Clear
8:53 PM 71.1 °F 45.0 °F 39% 29.79 in 10.0 mi SSE 8.1 mph - N/A   Scattered Clouds
9:53 PM 68.0 °F 46.0 °F 45% 29.80 in 10.0 mi SSE 5.8 mph - N/A   Partly Cloudy
10:53 PM 68.0 °F 48.0 °F 49% 29.79 in 10.0 mi SSE 10.4 mph - N/A   Clear
11:53 PM 62.1 °F 48.9 °F 62% 29.80 in 10.0 mi SW 3.5 mph - N/A   Clear